Location: Cahas Mountain Overlook
(37.0833°N, 80.1000°W)
Time: 23:14:46
(UTC-05:00)

Vanguard 1 - Pass Details

Date: 03 October 2022
Orbit: 650 x 3831 km, 34.2° (Epoch: 03 December)

Event Time Altitude Azimuth Distance (km) Brightness Sun altitude
Rises 21:12:34 0° 277° (W) 4,344 14.6 -26.9°
Reaches altitude 10° 21:17:01 10° 260° (W) 2,858 13.2 -27.8°
Maximum altitude 21:21:03 17° 220° (SW) 1,993 11.8 -28.5°
Enters shadow 21:22:29 16° 200° (SSW) 1,972 11.6 -28.8°
